{"data":{"norad_id":67163,"intl_designator":"2025-303A","name":"STARLINK-35755","alt_names":[],"object_type":"PAYLOAD","status":"ACTIVE","operator":null,"country":"US","launch_date":"2025-12-17","launch_site_code":"AFETR","launch_vehicle":null,"mission":null,"orbit_class":"UNKNOWN","rcs_meters":null,"size_class":null,"mass_kg":null,"dimensions":null,"purposes":["comms"],"wikipedia_slug":null,"has_3d_model":false,"image_url":null,"decayed_at":null,"tle_current":{"epoch":"2026-09-20T03:18:28.531872Z","epoch_age_seconds":110372,"freshness":"FRESH","line1":"1 67163U 25303A   26263.13783023  .00013657  00000+0  50480-3 0  9993","line2":"2 67163  42.9993 292.5619 0000894 245.4798 114.5960 15.27586738 42470","mean_motion":15.27586738,"eccentricity":8.94e-5,"inclination_deg":42.9993,"raan_deg":292.5619,"arg_perigee_deg":245.4798,"mean_anomaly_deg":114.596,"bstar":0.0005048,"rev_number":4247,"period_min":94.266332914446,"perigee_km":482.41553188457,"apogee_km":483.64230835109,"semimajor_km":6861.1659201178,"source":"CELESTRAK","updated_at":"2026-09-21T09:00:36.109836Z"}}}